Hourly Data Report for June 02, 2012

All times are specified in Local Standard Time (LST). Add 1 hour to adjust for Daylight Saving Time where and when it is observed.

VICTORIA HARTLAND CS
BRITISH COLUMBIA

48°32'01.800" N
123°27'32.900" W
154.10 m
1018FJ5

Download Data

Hourly Data (June 2012)
Hourly Data Report for June 2, 2012
Temp Definition
°C
Dew Point Temp Definition
°C
Rel Hum Definition
%
Wind Dir Definition
10's deg

Wind Spd Definition
km/h
Visibility Definition
km
Stn Press Definition
kPa
Hmdx Definition


Wind Chill Definition


Weather Definition


TIME
00:00 11.7 5.3 65   0   99.31     LegendNANA
01:00 10.9 5.1 67 28 2   99.29     LegendNANA
02:00 10.0 5.9 76   0   99.29     LegendNANA
03:00 10.2 4.5 68 27 4   99.28     LegendNANA
04:00 10.3 6.5 77   0   99.30     LegendNANA
05:00 10.0 6.6 79 35 4   99.31     LegendNANA
06:00 11.0 5.8 70 2 6   99.31     LegendNANA
07:00 10.4 7.7 83 17 2   99.41     LegendNANA
08:00 11.8 6.0 68   0   99.42     LegendNANA
09:00 14.6 7.2 61 5 4   99.44     LegendNANA
10:00 13.5 7.7 68 11 4   99.45     LegendNANA
11:00 14.4 7.8 65 13 6   99.46     LegendNANA
12:00 13.9 7.8 67 1 6   99.49     LegendNANA
13:00 14.1 6.4 60 5 4   99.50     LegendNANA
14:00 15.3 5.7 53 2 4   99.49     LegendNANA
15:00 15.8 3.1 43 22 9   99.53     LegendNANA
16:00 15.4 4.0 46 22 7   99.55     LegendNANA
17:00 13.9 2.2 45 22 11   99.54     LegendNANA
18:00 13.6 1.2 43 24 9   99.52     LegendNANA
19:00 12.8 0.7 43 25 11   99.52     LegendNANA
20:00 11.6 0.6 47 26 15   99.52     LegendNANA
21:00 10.6 1.3 53 27 11   99.52     LegendNANA
22:00 10.3 1.6 55 34 6   99.59     LegendNANA
23:00 9.8 1.7 57 28 9   99.57     LegendNANA

Notes on Data Quality.

Legend

  • E = Estimated
  • M = Missing
  • NA = Not Available
  • ‡ = Partner data that is not subject to review by the National Climate Archives
Date modified: